Flag for Germany Weather past 2 weeks in Dorsten, North Rhine-Westphalia, Germany

Now
58 °F

Overcast.


Feels Like: 58 °F
Forecast: 47 / 64 °F
Wind: 3 mph from Southwest

Location: Essen

Current Time: Aug 23, 2014 at 9:10:28 PM

Latest Report: Aug 23, 2014 at 8:00 PM


Visibility: 28 mi

Pressure: 29.95 "Hg

Humidity: 75%

Dew point: 49 °F

Location of DorstenLocation

Historic Weather in Dorsten — Graph

°F

Dorsten temperature yesterday

Maximum temperature yesterday: 64 °F (at 1:00 PM)
Minimum temperature yesterday: 54 °F (at 10:00 PM)
Average temperature yesterday: 59 °F

Past Weeks' High & Low Weather Summary

 TemperatureHumidityPressure
High72 °F (Aug 9, 5:00 PM)99% (Aug 16, 6:00 AM)30.10 "Hg (Aug 16, 6:00 AM)
Low47 °F (Aug 21, 7:00 AM)45% (Aug 11, 3:00 PM)29.58 "Hg (Aug 10, 8:00 PM)
Average59 °F81%29.86 "Hg
* Reported Aug 8 8:00 PM — Aug 23 8:00 PM, Dorsten, Weather by CustomWeather, © 2014

Note: Actual official high and low records may vary slightly from our data, if they occured in-between our weather recording intervals... More about our weather records

Advertising

Dorsten weather history for previous 24 hours

 ConditionsComfort  
Time TempWeatherWind HumidityBarometerVisibility
8:00 PM
Aug 23
58 °FOvercast.3 mph75%29.95 "Hg28 mi
7:00 PM59 °FOvercast.3 mph66%29.93 "Hg28 mi
6:00 PM59 °FOvercast.3 mph66%29.93 "Hg28 mi
5:00 PM57 °FOvercast.3 mph66%29.93 "Hg40 mi
4:00 PM57 °FOvercast.2 mph69%29.93 "Hg31 mi
3:00 PM53 °FOvercast.6 mph78%29.95 "Hg34 mi
2:00 PM61 °FOvercast.3 mph66%29.91 "Hg17 mi
1:00 PM60 °FScattered clouds.6 mph69%29.91 "Hg12 mi
12:00 PM58 °FPartly sunny.3 mph75%29.92 "Hg17 mi
11:00 AM57 °FPartly sunny.5 mph78%29.92 "Hg8 mi
10:00 AM54 °FPassing clouds.5 mph87%29.92 "Hg7 mi
9:00 AM54 °FFog.2 mph92%29.91 "Hg4 mi
8:00 AM53 °FFog.1 mph97%29.90 "Hg3 mi
7:00 AM52 °FFog.2 mph97%29.90 "Hg4 mi
6:00 AM52 °FOvercast.2 mph95%29.89 "Hg7 mi
5:00 AM52 °FLow clouds.3 mph97%29.90 "Hg5 mi
4:00 AM51 °FOvercast.2 mph96%29.90 "Hg9 mi
3:00 AM52 °FOvercast.3 mph91%29.90 "Hg19 mi
2:00 AM52 °FOvercast.3 mph92%29.90 "Hg25 mi
1:00 AM53 °FOvercast.3 mph94%29.90 "Hg16 mi
12:00 AM54 °FOvercast.3 mph94%29.90 "Hg15 mi
11:00 PM
Aug 22
54 °FOvercast.2 mph96%29.90 "Hg12 mi
10:00 PM54 °FPassing clouds.3 mph96%29.90 "Hg16 mi
9:00 PM55 °FLight rain. Overcast.3 mph94%29.88 "Hg19 mi
Weather by CustomWeather, © 2014

See weather overviewHow to use our weather pages